Date,TemperatureHighF,TemperatureAvgF,TemperatureLowF,DewpointHighF,DewpointAvgF,DewpointLowF,HumidityHigh,HumidityAvg,HumidityLow,PressureMaxIn,PressureMinIn,WindSpeedMaxMPH,WindSpeedAvgMPH,GustSpeedMaxMPH,PrecipitationSumIn
2014-1-1,70.6,50.0,37.5,51.1,40.6,32.6,93,73,29,30.19,30.08,10,1,0,0.00
2014-1-2,77.0,55.7,42.9,44.6,35.6,28.8,79,51,17,30.13,30.03,8,1,0,0.00
2014-1-3,68.8,55.2,44.1,52.8,39.5,29.0,88,58,28,30.05,29.92,12,1,12,0.00
2014-1-4,61.4,50.8,41.8,51.7,44.5,34.5,92,80,54,30.06,29.96,10,1,0,0.00
2014-1-5,67.7,52.9,39.5,49.6,43.5,37.6,94,73,40,30.19,30.06,10,1,0,0.00
2014-1-6,71.8,52.8,42.4,50.0,38.2,31.0,80,60,27,30.26,30.14,10,1,0,0.00
2014-1-7,63.1,50.8,43.2,53.7,40.4,29.8,94,69,34,30.18,30.09,10,1,0,0.00
2014-1-8,62.5,51.3,39.2,52.2,45.3,36.4,93,81,49,30.18,30.09,17,3,18,0.00
2014-1-9,68.5,59.2,54.8,51.6,45.2,42.5,69,60,43,30.18,30.06,22,6,22,0.00
2014-1-10,75.8,64.2,53.8,51.4,41.5,38.7,59,45,29,30.20,30.08,18,4,22,0.00
2014-1-11,66.7,56.3,44.9,53.7,45.3,35.8,91,68,42,30.22,30.10,19,1,19,0.00
2014-1-12,65.2,57.3,47.7,50.3,41.8,36.6,94,58,37,30.26,30.16,28,7,28,0.00
2014-1-13,77.2,58.6,42.0,43.3,36.2,30.5,67,46,21,30.35,30.22,24,2,24,0.00
2014-1-14,79.5,58.4,42.7,40.9,31.7,25.6,57,39,16,30.37,30.24,9,1,0,0.00
2014-1-15,85.0,60.4,47.9,38.0,29.4,23.4,49,33,12,30.27,30.15,12,1,12,0.00
2014-1-16,83.5,60.7,47.3,41.0,28.2,20.5,46,31,10,30.17,30.05,12,1,12,0.00
2014-1-17,87.5,60.6,46.9,35.4,26.4,21.6,45,29,11,30.14,30.06,11,2,0,0.00
2014-1-18,79.5,57.6,42.3,49.0,30.6,18.8,66,38,11,30.12,30.02,11,1,0,0.00
2014-1-19,78.1,57.9,46.7,48.2,32.2,20.8,72,41,14,30.13,30.04,10,2,0,0.00
2014-1-20,72.3,53.4,40.5,47.5,34.4,23.3,74,51,17,30.22,30.10,12,1,12,0.00
2014-1-21,67.8,54.5,44.9,51.4,39.0,28.6,81,58,27,30.21,30.11,7,0,0,0.00
2014-1-22,75.8,56.3,45.1,50.7,40.1,30.0,81,60,19,30.12,29.90,13,1,13,0.00
2014-1-23,62.7,52.6,40.5,53.6,42.9,25.8,85,70,44,30.06,29.89,16,2,16,0.00
2014-1-24,66.5,55.6,45.8,55.0,49.6,43.0,91,81,55,30.24,30.05,12,1,12,0.00
2014-1-25,75.9,59.4,48.9,52.4,44.7,34.5,91,63,24,30.22,30.11,12,1,14,0.00
2014-1-26,67.6,56.2,48.5,52.5,40.9,33.7,81,57,38,30.15,30.06,14,1,14,0.00
2014-1-27,64.8,53.2,44.5,53.7,47.1,39.7,93,80,56,30.15,30.05,19,2,19,0.00
2014-1-28,78.5,58.3,44.5,53.7,47.7,37.8,97,72,25,30.18,30.08,15,2,15,0.00
2014-1-29,75.8,61.9,52.4,57.3,50.9,41.9,95,70,33,30.16,29.95,19,3,19,0.01
2014-1-30,60.7,55.3,49.6,54.9,51.6,46.1,96,88,70,29.98,29.90,15,2,15,0.01
2014-1-31,60.6,52.2,46.0,48.9,45.0,36.7,93,78,53,30.06,29.94,20,2,20,0.00
2014-2-1,61.4,48.9,39.9,45.0,37.5,30.8,83,66,33,30.16,30.06,21,2,21,0.00
2014-2-2,56.2,46.6,39.6,46.7,37.5,26.4,88,71,49,30.11,29.92,20,3,20,0.17
2014-2-3,59.2,49.7,41.9,46.3,42.6,39.2,91,78,51,30.07,29.92,20,2,20,0.00
2014-2-4,56.4,47.5,38.6,44.8,40.7,35.6,94,78,60,30.15,30.03,17,2,17,0.00
2014-2-5,58.6,48.2,35.5,45.6,40.4,32.8,93,76,50,30.20,30.07,21,3,21,0.00
2014-2-6,55.8,50.6,46.8,54.4,48.3,42.3,96,92,83,30.11,29.93,21,2,21,0.55
2014-2-7,58.7,53.7,47.6,53.6,49.3,45.8,98,86,71,30.23,30.07,8,0,0,0.00
2014-2-8,62.7,55.4,47.9,57.1,52.2,45.6,96,89,74,30.28,30.20,12,1,12,0.02
2014-2-9,64.1,57.5,54.8,56.9,54.6,52.8,97,90,68,30.26,30.15,15,2,15,0.03
2014-2-10,63.9,57.4,53.1,57.9,54.3,50.6,97,90,71,30.23,30.11,22,3,22,0.02
2014-2-11,73.2,60.7,49.2,55.3,50.0,46.7,91,69,41,30.17,30.07,18,4,18,0.00
2014-2-12,67.9,54.7,43.6,54.6,47.9,40.3,93,79,48,30.20,30.09,12,1,12,0.00
2014-2-13,70.4,55.3,44.7,55.4,49.3,43.1,96,82,50,30.14,30.05,16,1,16,0.00
2014-2-14,65.6,52.7,43.2,57.2,49.7,41.9,97,90,67,30.15,30.05,14,1,14,0.01
2014-2-15,68.0,51.8,44.2,53.7,48.2,43.1,97,89,53,30.11,29.98,13,0,13,0.00
2014-2-16,69.3,56.9,48.1,55.4,51.0,44.7,96,82,59,30.11,30.01,18,2,18,0.00
2014-2-17,63.2,52.4,43.0,53.2,47.3,39.7,94,83,65,30.12,30.04,16,2,16,0.00
2014-2-18,73.0,61.8,45.0,49.2,43.5,38.8,95,54,30,30.08,29.97,18,4,18,0.00
2014-2-19,72.6,59.9,50.7,51.5,44.4,33.8,87,59,36,30.10,30.00,24,5,24,0.00
2014-2-20,78.9,65.8,55.0,40.1,34.6,28.4,53,32,20,30.09,29.97,29,6,29,0.00
2014-2-21,81.3,63.1,46.1,48.8,40.0,34.3,69,45,20,30.02,29.88,17,3,17,0.00
2014-2-22,73.2,57.7,44.1,51.1,45.4,37.0,91,67,36,29.95,29.86,20,2,20,0.00
2014-2-23,67.7,52.9,42.1,51.2,45.9,38.6,94,79,48,30.01,29.94,13,1,13,0.00
2014-2-24,62.6,51.7,42.5,51.0,47.3,41.2,97,86,61,30.02,29.95,12,2,12,0.00
2014-2-25,62.6,53.4,46.0,52.6,49.2,44.4,95,86,67,30.04,29.96,14,2,14,0.00
2014-2-26,65.4,58.7,55.0,56.2,51.9,48.9,93,78,63,30.04,29.86,21,5,21,0.20
2014-2-27,72.7,61.2,51.5,57.4,50.6,42.9,94,71,40,30.00,29.64,24,2,24,0.11
2014-2-28,60.0,56.6,53.6,56.4,53.3,49.5,94,89,81,29.65,29.50,25,5,25,0.67
2014-3-1,61.1,56.5,54.0,56.7,52.8,50.9,94,88,75,29.92,29.62,18,4,18,0.33
2014-3-2,58.5,54.9,51.1,55.4,52.2,49.1,96,91,83,30.19,29.92,10,1,0,0.18
2014-3-3,62.7,54.3,47.8,54.9,51.0,46.3,96,89,73,30.20,30.07,13,1,13,0.00
2014-3-4,63.7,56.8,51.1,58.1,54.0,49.6,96,91,79,30.13,30.01,15,2,15,0.00
2014-3-5,65.2,56.9,52.1,58.6,54.2,51.3,98,91,69,30.11,30.05,10,1,12,0.01
2014-3-6,65.4,58.5,53.5,60.2,54.3,49.5,96,87,65,30.14,30.05,19,3,21,0.00
2014-3-7,73.0,63.2,54.5,49.6,46.0,42.6,79,55,37,30.10,29.99,22,6,22,0.00
2014-3-8,77.5,62.8,46.2,50.8,43.5,33.3,79,53,22,30.16,30.01,23,2,23,0.00
2014-3-9,78.5,63.1,50.9,47.1,43.5,37.7,74,52,26,30.17,30.09,11,1,0,0.00
2014-3-10,69.5,59.4,46.9,54.9,47.1,38.8,82,64,45,30.14,30.02,16,2,16,0.00
2014-3-11,78.3,64.0,53.5,50.8,41.8,29.4,73,46,26,30.08,29.93,28,4,28,0.00
2014-3-12,71.4,58.3,47.8,53.5,46.5,39.1,85,67,34,30.02,29.93,13,2,14,0.00
2014-3-13,73.7,60.0,47.6,51.3,45.9,33.3,90,65,24,30.06,29.92,22,3,22,0.00
2014-3-14,66.0,54.0,42.1,53.3,46.9,36.6,94,78,59,30.18,30.05,15,2,15,0.00
2014-3-15,83.8,65.5,47.3,55.6,46.5,38.3,94,55,23,30.26,30.15,21,3,21,0.00
2014-3-16,85.0,62.3,47.4,56.4,47.6,38.4,92,64,21,30.25,30.14,16,1,16,0.00
2014-3-17,66.8,56.0,48.7,54.2,49.8,43.6,97,81,49,30.16,29.90,25,4,25,0.00
2014-3-18,78.8,62.4,51.2,50.0,40.8,33.2,87,48,23,29.95,29.84,22,3,22,0.00
2014-3-19,74.5,59.1,45.9,49.8,42.0,38.0,78,56,29,30.07,29.95,16,2,16,0.00
2014-3-20,69.8,55.6,45.1,52.4,45.1,37.2,90,69,37,30.06,29.96,15,2,15,0.00
2014-3-21,61.6,55.1,52.2,51.4,48.8,45.6,92,80,66,30.05,29.96,10,2,14,0.00
2014-3-22,62.2,54.3,49.0,50.2,46.9,44.1,87,76,64,30.13,30.02,15,2,15,0.00
2014-3-23,62.5,53.7,48.6,51.9,48.6,44.9,92,83,66,30.17,30.08,14,2,14,0.00
2014-3-24,64.1,54.4,48.7,54.2,50.4,47.1,95,87,68,30.15,30.03,11,1,0,0.00
2014-3-25,65.8,55.4,50.0,55.2,51.0,48.6,96,86,61,30.06,29.93,17,2,17,0.05
2014-3-26,62.0,55.7,51.7,54.6,51.8,47.2,96,87,61,30.04,29.91,18,2,18,0.21
2014-3-27,62.9,54.5,46.1,51.8,48.5,44.5,95,81,61,30.15,30.02,19,3,19,0.00
2014-3-28,67.5,55.5,44.7,52.4,48.4,42.5,93,79,53,30.20,30.11,21,3,21,0.00
2014-3-29,65.2,56.4,46.0,55.2,51.2,44.4,95,84,60,30.19,30.02,18,3,18,0.08
2014-3-30,64.6,55.7,49.6,53.0,48.2,44.2,95,77,50,30.13,30.05,23,4,23,0.05
2014-3-31,61.8,52.1,42.8,50.4,45.3,40.6,93,79,52,30.11,29.93,21,2,21,0.23
2014-4-1,60.2,51.8,43.6,52.0,45.6,41.1,96,81,51,30.05,29.94,16,2,16,0.22
2014-4-2,61.9,51.4,45.8,49.9,45.7,42.6,96,82,56,30.11,29.96,18,2,18,0.25
2014-4-3,63.7,52.4,41.3,50.6,45.1,39.2,93,78,49,30.14,30.08,17,2,17,0.00
2014-4-4,61.2,52.6,43.2,50.7,46.3,41.3,94,80,61,30.10,30.00,21,3,21,0.00
2014-4-5,65.0,55.7,47.0,51.6,47.0,42.1,89,74,55,30.17,30.03,19,3,19,0.00
2014-4-6,82.8,63.4,49.3,52.3,47.4,42.3,91,61,25,30.16,30.04,18,3,18,0.00
2014-4-7,81.0,64.9,49.0,51.8,48.1,44.7,89,59,30,30.11,30.05,12,2,12,0.00
2014-4-8,77.0,61.6,50.1,56.8,50.8,45.3,95,70,42,30.11,30.04,16,2,16,0.00
2014-4-9,71.0,56.1,47.9,55.5,50.7,46.8,97,84,55,30.10,30.00,14,2,14,0.00
2014-4-10,65.7,55.3,48.1,53.9,50.3,46.1,94,84,61,30.04,29.93,10,1,0,0.00
2014-4-11,66.4,56.0,50.7,54.7,51.1,48.7,95,84,66,29.98,29.90,12,2,17,0.00
2014-4-12,62.2,55.3,50.4,50.2,48.0,45.4,88,77,62,29.99,29.90,15,2,15,0.00
2014-4-13,62.9,55.5,48.8,52.6,49.3,44.6,90,80,68,30.06,29.98,15,3,15,0.00
2014-4-14,69.3,57.0,48.7,56.4,51.7,46.4,94,83,61,30.11,30.01,14,1,14,0.00
2014-4-15,67.2,57.1,52.0,56.2,52.6,49.4,97,86,67,30.06,29.88,17,2,17,0.00
2014-4-16,66.8,56.3,50.6,55.0,51.2,49.0,95,84,62,29.92,29.80,15,2,15,0.00
2014-4-17,63.1,55.2,49.1,56.0,51.5,47.0,94,88,76,29.95,29.82,11,1,0,0.00
2014-4-18,63.9,57.0,54.2,55.3,52.2,49.8,94,84,70,29.99,29.89,15,2,15,0.00
2014-4-19,65.7,56.9,51.2,55.1,51.3,49.0,92,82,65,30.09,29.96,18,3,18,0.00
2014-4-20,70.8,58.4,48.8,55.0,51.0,47.4,97,78,53,30.09,30.01,14,2,14,0.00
2014-4-21,73.5,59.0,48.2,56.0,49.4,42.0,88,73,33,30.06,29.97,17,2,17,0.00
2014-4-22,67.5,56.7,50.5,51.9,47.5,37.7,94,73,34,30.06,29.96,27,4,27,0.00
2014-4-23,70.2,57.2,49.2,48.1,43.2,36.4,85,61,30,30.07,29.98,26,4,26,0.00
2014-4-24,76.3,61.9,48.8,52.3,46.9,40.1,90,60,32,30.04,29.94,25,5,25,0.00
2014-4-25,68.8,55.4,49.5,54.8,50.6,46.1,94,84,58,29.97,29.86,15,2,15,0.18
2014-4-26,59.9,53.0,46.7,48.4,45.5,43.6,92,77,56,30.10,29.88,24,4,24,0.00
2014-4-27,64.9,54.8,44.0,53.9,47.1,40.5,91,77,49,30.11,30.04,17,4,22,0.00
2014-4-28,80.3,62.4,47.4,50.4,46.2,35.6,95,62,21,30.11,30.01,23,3,23,0.00
2014-4-29,91.6,74.0,60.3,49.1,44.9,35.1,58,37,14,30.10,30.00,21,5,21,0.00
2014-4-30,93.8,71.0,55.1,47.2,42.3,32.1,65,40,13,30.05,29.98,20,3,20,0.00
2014-5-1,89.9,70.4,52.5,45.7,38.5,27.5,60,35,14,30.07,30.02,20,3,20,0.00
2014-5-2,97.1,72.1,56.2,54.0,45.1,27.8,72,41,10,30.03,29.93,20,3,20,0.00
2014-5-3,68.3,57.9,48.5,54.3,50.2,44.5,90,76,58,30.02,29.94,16,2,18,0.00
2014-5-4,68.4,57.6,47.7,52.9,50.3,44.6,94,78,53,30.04,29.96,14,3,20,0.00
2014-5-5,64.3,57.1,53.1,54.1,51.0,48.8,94,81,63,30.05,29.98,22,4,22,0.00
2014-5-6,62.5,55.4,48.5,49.9,47.1,43.8,90,75,52,29.99,29.90,26,5,26,0.00
2014-5-7,60.6,53.9,47.0,48.9,47.0,44.1,91,78,59,30.05,29.94,19,4,21,0.00
2014-5-8,64.8,56.2,46.1,54.9,49.1,42.5,91,78,53,30.13,30.02,21,3,21,0.00
2014-5-9,66.8,59.8,52.4,57.3,53.3,48.0,89,80,62,30.12,30.04,26,4,26,0.00
2014-5-10,66.2,57.0,48.9,49.3,46.7,41.8,90,70,43,30.08,29.92,27,6,27,0.00
2014-5-11,71.7,58.4,44.6,49.0,45.8,40.9,92,66,34,30.04,29.95,18,3,20,0.00
2014-5-12,83.6,65.3,46.2,47.0,42.5,34.8,80,49,19,30.06,30.01,16,2,16,0.00
2014-5-13,93.7,71.6,51.7,46.8,39.6,31.4,63,36,12,30.12,30.03,17,2,17,0.00
2014-5-14,96.3,75.5,56.4,48.7,37.9,26.5,48,29,9,30.12,30.01,16,3,16,0.00
2014-5-15,101.3,79.9,60.8,54.1,48.4,33.1,67,37,11,30.02,29.97,18,2,18,0.00
2014-5-16,72.1,62.5,55.2,55.7,52.1,48.7,84,69,54,30.02,29.94,11,2,14,0.00
2014-5-17,66.8,57.8,50.4,55.4,51.5,47.0,94,80,62,29.99,29.91,19,2,19,0.00
2014-5-18,68.5,57.8,48.3,54.7,50.9,46.1,95,79,59,29.95,29.90,23,4,23,0.00
2014-5-19,64.8,56.6,47.5,53.2,50.3,45.0,93,80,60,30.01,29.93,24,4,24,0.00
2014-5-20,64.3,57.7,51.9,53.0,51.1,48.6,93,79,59,30.04,29.98,21,4,21,0.00
2014-5-21,62.1,57.3,53.8,53.0,52.1,51.2,93,83,71,30.03,29.98,16,3,16,0.00
2014-5-22,65.0,57.7,54.2,55.2,52.4,50.9,91,83,68,30.05,29.97,13,2,13,0.00
2014-5-23,65.3,57.3,51.3,56.2,52.9,49.1,95,86,71,30.05,30.00,18,2,18,0.00
2014-5-24,65.3,58.2,54.4,56.4,53.8,52.1,92,85,71,30.04,29.96,16,2,16,0.00
2014-5-25,72.0,60.9,55.4,59.0,54.4,52.2,90,80,63,30.00,29.90,10,2,15,0.00
2014-5-26,72.4,62.2,52.2,58.0,53.9,49.1,90,75,57,29.99,29.92,13,2,13,0.00
2014-5-27,69.5,60.2,51.9,57.1,52.2,48.8,90,76,56,29.99,29.93,16,2,16,0.00
2014-5-28,74.5,60.7,49.0,55.0,50.3,46.2,91,71,42,29.95,29.83,17,2,17,0.00
2014-5-29,72.3,60.2,48.1,56.3,49.9,42.7,87,71,46,29.95,29.86,14,2,14,0.00
2014-5-30,64.8,56.9,51.7,53.0,51.0,49.4,94,82,64,29.97,29.90,14,2,14,0.00
2014-5-31,66.0,56.7,51.2,53.4,51.0,48.5,94,82,62,29.98,29.93,15,2,15,0.00
2014-6-1,64.3,56.3,51.7,54.1,51.3,49.5,93,84,67,29.95,29.88,14,2,14,0.00
2014-6-2,63.7,56.1,51.6,52.8,50.9,49.6,95,84,64,29.96,29.89,17,2,17,0.00
2014-6-3,66.5,57.9,52.0,54.2,51.2,47.9,92,79,63,29.97,29.89,15,2,15,0.00
2014-6-4,65.3,56.9,51.4,55.5,52.1,49.3,93,85,69,29.92,29.86,12,2,12,0.00
2014-6-5,65.0,56.6,51.9,56.1,52.7,50.5,96,87,73,29.91,29.86,14,2,14,0.00
2014-6-6,65.4,57.2,53.1,55.0,52.7,51.4,95,85,67,29.89,29.85,10,2,12,0.00
2014-6-7,64.5,57.5,53.4,55.4,52.8,50.8,93,85,72,29.88,29.82,15,2,15,0.00
2014-6-8,67.8,59.2,53.4,57.9,54.1,51.7,94,84,69,29.85,29.78,11,1,0,0.00
2014-6-9,70.2,60.4,53.8,59.1,55.6,52.2,97,85,68,29.81,29.75,13,2,13,0.00
2014-6-10,69.1,60.9,55.7,60.4,56.4,53.7,95,86,72,29.90,29.78,15,2,15,0.00
2014-6-11,67.2,61.7,59.1,60.2,57.0,54.6,94,85,72,29.95,29.87,11,2,0,0.00
2014-6-12,68.7,60.9,55.5,57.7,55.0,52.3,90,81,67,29.99,29.92,14,2,14,0.00
2014-6-13,66.5,59.3,54.0,56.4,53.7,51.1,91,82,68,29.99,29.92,16,2,16,0.00
2014-6-14,68.8,59.2,48.5,57.3,52.8,46.0,92,80,62,29.92,29.83,15,2,15,0.00
2014-6-15,63.2,57.7,54.0,54.2,52.2,50.5,93,82,70,29.93,29.84,18,3,18,0.00
2014-6-16,63.4,58.0,54.1,52.8,51.3,49.9,87,79,68,29.98,29.91,15,3,15,0.00
2014-6-17,64.3,57.7,51.4,53.2,50.8,47.6,90,78,63,29.98,29.93,16,2,16,0.00
2014-6-18,70.4,58.9,50.6,56.4,52.5,47.8,94,80,55,29.98,29.91,14,2,14,0.00
2014-6-19,70.8,60.9,53.1,57.7,54.5,51.4,95,81,59,30.00,29.93,14,2,14,0.00
2014-6-20,72.4,61.3,53.2,58.2,54.4,51.5,95,79,57,30.00,29.88,9,2,0,0.00
2014-6-21,70.5,59.5,50.7,57.8,53.0,47.6,92,80,62,29.93,29.86,14,2,14,0.00
2014-6-22,67.5,57.6,52.5,56.6,52.6,50.5,94,84,66,29.98,29.90,13,2,0,0.00
2014-6-23,64.1,57.2,53.0,55.3,52.6,50.7,93,85,72,29.99,29.94,11,2,0,0.00
2014-6-24,67.5,59.3,50.6,57.0,53.7,48.4,93,83,67,30.00,29.93,13,2,13,0.00
2014-6-25,67.6,59.0,53.2,58.6,55.0,52.1,97,87,70,29.99,29.90,17,3,17,0.00
2014-6-26,69.6,60.7,54.5,59.5,55.6,52.9,96,84,66,29.98,29.92,18,3,18,0.00
2014-6-27,71.9,60.9,53.7,58.3,55.9,52.9,97,85,59,29.97,29.87,16,3,16,0.00
2014-6-28,69.5,61.3,55.2,59.5,55.8,53.1,96,83,66,29.92,29.86,14,2,14,0.00
2014-6-29,71.9,61.8,52.0,58.4,54.3,49.2,91,78,60,29.90,29.84,11,2,0,0.00
2014-6-30,73.5,62.2,54.8,63.3,57.6,52.6,95,86,67,29.91,29.85,12,2,0,0.00
2014-7-1,68.8,62.4,58.2,61.2,58.4,55.9,95,87,74,29.90,29.83,10,2,0,0.00
2014-7-2,69.2,60.5,56.3,59.5,56.3,54.8,96,87,69,29.95,29.85,11,2,0,0.00
2014-7-3,72.8,61.4,56.6,60.6,56.3,53.7,93,84,64,29.98,29.90,12,2,12,0.00
2014-7-4,72.3,61.3,55.6,61.3,56.3,52.7,95,85,66,30.01,29.92,12,2,12,0.00
2014-7-5,74.5,64.0,55.8,61.7,57.5,54.2,96,81,63,30.07,30.00,12,2,0,0.00
2014-7-6,74.0,63.2,55.3,60.2,56.6,53.3,96,80,60,30.03,29.93,10,2,0,0.00
2014-7-7,72.4,61.9,55.8,60.1,56.5,54.1,95,84,63,29.95,29.88,10,2,0,0.00
2014-7-8,72.7,61.7,56.9,60.8,56.7,54.9,94,84,64,29.98,29.90,12,2,12,0.00
2014-7-9,71.1,62.7,58.3,60.7,57.6,55.6,92,84,68,30.01,29.91,10,2,0,0.00
2014-7-10,70.4,62.4,58.0,61.2,57.8,56.3,95,86,68,30.00,29.93,11,2,0,0.00
2014-7-11,70.7,63.0,58.5,59.9,57.4,54.8,90,83,68,30.05,29.97,12,2,12,0.00
2014-7-12,71.5,62.8,54.1,61.0,57.0,51.8,94,82,69,30.04,29.98,17,2,17,0.00
2014-7-13,71.7,63.0,56.8,61.7,57.7,55.2,96,84,66,30.00,29.87,10,2,0,0.00
2014-7-14,76.1,64.8,59.1,64.9,60.1,56.1,92,85,68,29.98,29.88,13,1,13,0.00
2014-7-15,75.8,67.6,63.2,66.7,62.6,60.3,94,84,72,30.02,29.97,15,2,15,0.00
2014-7-16,71.3,66.1,62.3,62.6,60.6,58.2,89,83,66,30.07,29.98,8,1,0,0.00
2014-7-17,73.3,65.3,57.1,61.3,58.3,54.2,91,79,63,30.05,29.98,12,2,12,0.00
2014-7-18,70.4,64.4,61.2,61.5,58.5,57.3,89,82,69,30.04,29.96,15,2,15,0.00
2014-7-19,73.5,64.8,57.9,61.6,58.7,55.3,92,81,64,29.99,29.93,11,2,0,0.00
2014-7-20,76.5,67.2,60.3,62.7,59.7,57.0,90,78,61,30.02,29.94,15,2,13,0.00
2014-7-21,75.6,67.7,62.9,62.9,60.5,58.6,90,78,63,30.08,29.99,13,2,13,0.00
2014-7-22,75.7,67.0,59.5,61.9,59.6,56.8,94,78,57,30.10,30.04,14,3,14,0.00
2014-7-23,78.3,66.6,54.4,62.9,58.7,51.5,92,77,57,30.10,29.95,20,3,20,0.00
2014-7-24,76.4,65.9,60.0,64.9,59.8,57.4,96,82,63,29.97,29.83,15,3,15,0.00
2014-7-25,75.5,64.8,58.3,63.4,59.5,56.4,94,84,64,29.93,29.84,11,2,0,0.00
2014-7-26,74.8,65.3,60.4,63.8,60.5,58.4,94,85,66,29.97,29.91,12,2,0,0.00
2014-7-27,75.7,65.4,58.9,65.4,60.6,57.6,97,85,67,30.01,29.96,12,2,0,0.00
2014-7-28,79.9,67.7,62.2,64.7,61.7,59.8,93,82,59,30.09,29.99,11,1,0,0.00
2014-7-29,74.0,66.1,61.5,64.3,61.3,59.4,95,85,68,30.08,29.98,11,2,0,0.00
2014-7-30,72.6,64.3,60.2,64.7,60.5,58.5,96,88,71,30.01,29.95,11,2,0,0.00
2014-7-31,71.4,63.4,59.3,63.4,60.1,58.1,97,90,75,29.99,29.91,11,2,0,0.00
2014-8-1,73.2,64.1,59.6,63.2,60.1,58.2,96,88,71,29.95,29.88,10,2,0,0.00
2014-8-2,73.9,64.2,59.3,63.9,60.0,58.1,96,87,69,29.96,29.89,12,2,12,0.00
2014-8-3,73.2,64.3,59.5,63.7,59.9,58.0,96,86,70,29.99,29.93,9,1,0,0.00
2014-8-4,71.2,63.7,58.9,60.1,58.3,57.1,95,84,66,30.02,29.95,12,2,12,0.00
2014-8-5,73.2,64.6,60.1,61.2,58.5,57.1,91,81,65,30.06,30.01,13,2,13,0.00
2014-8-6,70.8,64.1,60.6,62.4,59.6,57.2,92,85,73,30.07,29.98,12,2,12,0.00
2014-8-7,70.6,64.1,61.2,62.7,60.2,58.6,94,87,75,30.01,29.92,10,2,0,0.00
2014-8-8,72.5,64.3,60.7,63.4,59.6,57.5,93,85,70,29.96,29.91,13,2,13,0.00
2014-8-9,74.9,64.4,60.3,63.6,59.2,57.5,92,84,67,29.99,29.93,12,2,12,0.00
2014-8-10,71.3,62.9,59.8,60.9,58.3,57.2,93,85,68,30.04,29.95,10,1,0,0.00
2014-8-11,71.2,63.0,56.6,61.3,58.2,54.3,96,85,70,29.98,29.93,13,2,0,0.00
2014-8-12,72.3,64.2,58.3,61.6,58.6,55.7,94,83,68,30.00,29.93,12,2,0,0.00
2014-8-13,71.9,64.5,59.9,62.4,59.1,57.5,92,83,69,30.00,29.93,10,2,0,0.00
2014-8-14,71.0,63.6,59.8,62.5,59.6,58.1,95,87,72,30.00,29.93,11,2,0,0.00
2014-8-15,70.6,63.1,58.2,61.7,59.0,56.6,97,87,72,30.02,29.96,11,2,0,0.00
2014-8-16,76.5,63.6,56.5,62.6,58.3,55.1,95,84,61,30.06,29.98,13,2,13,0.00
2014-8-17,71.9,62.9,58.0,61.2,58.2,55.1,94,85,67,30.03,29.92,12,2,0,0.00
2014-8-18,72.2,62.6,58.1,61.0,58.2,56.7,95,86,66,29.92,29.84,13,2,0,0.00
2014-8-19,71.3,63.0,59.2,60.6,58.1,56.9,94,85,68,29.93,29.85,11,2,0,0.00
2014-8-20,79.1,65.9,60.5,63.2,58.5,56.4,90,78,58,29.96,29.88,11,2,0,0.00
2014-8-21,73.8,64.2,56.2,61.7,57.7,52.7,91,80,65,29.98,29.92,11,2,0,0.00
2014-8-22,72.2,64.7,59.4,62.6,59.2,57.1,93,83,67,29.98,29.92,11,2,0,0.00
2014-8-23,72.0,63.8,58.8,61.3,58.3,54.1,92,83,66,30.00,29.89,11,2,0,0.00
2014-8-24,72.9,63.5,54.6,59.6,56.3,51.7,91,78,61,29.93,29.85,10,2,0,0.00
2014-8-25,71.5,64.1,57.3,58.2,55.6,52.9,87,74,61,29.97,29.88,11,2,0,0.00
2014-8-26,75.2,63.4,51.6,60.1,55.6,48.5,90,77,59,30.01,29.95,11,2,0,0.00
2014-8-27,76.9,65.0,53.3,62.4,57.4,50.4,92,78,56,30.07,30.01,11,2,0,0.00
2014-8-28,74.5,64.6,59.8,61.2,59.3,57.1,94,84,63,30.06,29.95,13,2,13,0.00
2014-8-29,73.0,63.8,58.9,62.3,59.0,56.0,93,85,68,29.96,29.86,14,2,14,0.00
2014-8-30,80.5,67.3,59.5,64.2,59.9,57.9,96,79,53,29.88,29.81,13,2,13,0.00
2014-8-31,73.6,64.6,56.8,62.0,57.7,53.1,90,79,63,29.89,29.81,15,2,15,0.00
2014-9-1,76.8,62.9,55.3,62.9,57.3,52.8,93,83,62,29.87,29.81,13,2,13,0.00
2014-9-2,71.1,63.7,59.8,61.7,58.7,56.9,91,84,71,29.89,29.81,11,2,0,0.00
2014-9-3,71.3,62.9,59.5,60.6,57.7,56.6,91,84,67,29.85,29.73,10,1,0,0.00
2014-9-4,71.5,63.4,59.4,61.0,57.5,55.7,88,81,68,29.84,29.74,9,2,0,0.00
2014-9-5,72.7,62.1,56.1,61.1,56.6,52.3,91,83,66,29.93,29.83,13,2,0,0.00
2014-9-6,71.6,60.8,53.3,60.3,55.5,50.1,94,83,66,29.98,29.88,9,2,0,0.00
2014-9-7,71.0,61.0,54.2,59.8,56.0,51.3,94,84,67,29.90,29.81,10,1,0,0.00
2014-9-8,72.4,62.8,56.1,60.0,57.0,52.3,92,82,65,29.94,29.84,12,1,0,0.00
2014-9-9,72.5,61.3,54.6,59.6,55.5,51.1,93,82,61,29.99,29.89,10,1,0,0.00
2014-9-10,76.1,61.8,54.9,61.6,56.0,52.3,95,83,59,29.95,29.86,10,1,0,0.00
2014-9-11,75.5,62.1,56.2,61.6,57.1,53.8,95,85,62,29.92,29.85,9,1,0,0.00
2014-9-12,72.9,62.2,56.9,61.2,57.9,55.2,95,86,66,29.91,29.83,10,1,0,0.00
2014-9-13,74.2,62.9,58.5,62.2,58.4,56.2,94,86,65,29.86,29.81,10,1,0,0.00
2014-9-14,75.5,64.2,58.5,62.9,58.9,55.8,94,84,63,29.85,29.77,11,1,0,0.00
2014-9-15,76.6,66.1,59.3,64.5,59.2,56.7,94,80,60,29.91,29.82,10,1,0,0.00
2014-9-16,77.8,65.6,55.9,63.0,58.1,52.7,90,78,58,29.91,29.79,10,1,13,0.00
2014-9-17,75.5,63.9,54.9,62.4,57.7,51.9,91,81,62,29.86,29.78,11,1,0,0.00
2014-9-18,75.7,65.9,57.1,65.6,60.0,53.4,90,82,68,29.90,29.83,13,2,15,0.00
2014-9-19,75.4,67.9,63.1,63.1,60.7,58.8,89,78,64,29.92,29.86,13,2,0,0.00
2014-9-20,72.7,64.9,61.3,62.9,60.1,59.0,92,85,68,29.97,29.88,12,2,12,0.00
2014-9-21,69.9,64.7,61.8,60.8,59.2,58.1,90,83,71,30.03,29.93,11,2,0,0.00
2014-9-22,73.0,64.5,57.8,62.6,59.1,54.5,91,83,69,30.02,29.95,11,1,0,0.00
2014-9-23,72.7,63.6,58.4,62.7,59.1,55.7,94,86,70,30.01,29.93,11,2,0,0.00
2014-9-24,74.2,64.9,60.5,62.2,59.5,57.5,91,83,64,29.98,29.89,12,1,12,0.00
2014-9-25,77.5,66.0,60.1,65.7,59.7,55.4,92,80,66,30.00,29.92,16,2,13,0.00
2014-9-26,75.0,63.8,54.6,59.8,56.2,51.6,91,77,59,29.96,29.86,21,3,21,0.00
2014-9-27,70.2,61.1,51.7,58.1,54.6,49.5,94,80,61,29.96,29.85,22,3,22,0.00
2014-9-28,71.8,63.3,57.3,58.1,56.1,53.8,89,78,57,29.97,29.86,15,2,15,0.00
2014-9-29,77.6,62.9,51.0,60.6,55.4,48.2,94,78,53,30.00,29.87,16,2,16,0.00
2014-9-30,74.4,61.6,52.1,60.8,55.8,49.3,93,82,62,29.95,29.81,15,2,17,0.00
2014-10-1,88.2,68.1,53.3,59.7,54.1,48.5,95,66,27,29.87,29.76,18,2,18,0.00
2014-10-2,93.3,72.2,56.9,55.1,50.4,46.1,73,50,22,30.00,29.86,13,1,13,0.00
2014-10-3,93.8,73.6,57.0,47.8,42.2,30.9,59,37,11,30.05,29.97,11,2,0,0.00
2014-10-4,97.3,72.8,56.0,55.8,46.6,35.4,57,41,21,30.00,29.85,9,1,0,0.00
2014-10-5,89.0,72.2,57.0,56.6,47.4,38.5,58,43,26,29.92,29.85,10,1,0,0.00
2014-10-6,79.5,65.4,56.3,61.6,53.2,41.1,90,66,48,29.93,29.84,9,1,0,0.00
2014-10-7,73.8,61.7,53.8,59.6,56.0,52.1,95,83,59,29.93,29.84,9,1,0,0.00
2014-10-8,70.7,60.9,54.1,60.6,56.6,52.4,95,87,69,29.90,29.83,8,1,0,0.00
2014-10-9,70.8,61.3,54.0,61.1,57.2,52.0,95,87,69,29.98,29.87,9,1,0,0.00
2014-10-10,69.2,61.4,55.3,59.5,56.7,52.2,92,85,71,30.04,29.96,12,2,12,0.00
2014-10-11,70.3,61.5,55.8,60.4,57.1,53.8,95,86,70,30.03,29.94,10,1,0,0.00
2014-10-12,92.0,67.2,52.3,62.9,54.7,48.9,95,69,24,29.94,29.83,18,2,18,0.00
2014-10-13,76.2,64.3,52.4,62.9,55.2,45.9,87,73,45,29.99,29.89,11,1,0,0.00
2014-10-14,76.7,66.5,59.2,60.9,57.7,55.0,89,74,56,29.99,29.87,14,2,14,0.00
2014-10-15,75.0,67.0,59.8,60.2,57.6,55.6,86,73,57,30.01,29.92,15,2,15,0.00
2014-10-16,72.1,61.8,52.4,59.8,54.8,49.0,89,79,58,30.03,29.93,12,2,0,0.00
2014-10-17,70.9,60.7,50.4,57.4,52.6,47.0,89,76,54,30.01,29.95,12,1,12,0.00
2014-10-18,78.5,63.6,51.0,60.7,53.6,46.5,86,72,39,29.99,29.82,17,2,17,0.00
2014-10-19,77.4,62.5,52.3,60.4,54.9,47.0,90,77,46,29.93,29.86,12,2,0,0.00
2014-10-20,71.7,63.6,57.8,60.7,57.5,53.6,90,81,65,29.99,29.91,13,2,13,0.00
2014-10-21,79.1,68.9,59.0,56.2,49.0,40.1,87,52,33,30.00,29.88,18,4,18,0.00
2014-10-22,80.0,68.0,56.3,57.7,49.9,39.8,78,54,35,29.98,29.90,21,3,21,0.00
2014-10-23,76.2,62.4,51.2,58.2,51.0,43.4,84,68,38,30.03,29.93,10,1,0,0.00
2014-10-24,74.0,59.5,46.9,58.7,52.4,44.3,94,79,54,30.02,29.93,11,1,0,0.00
2014-10-25,73.0,62.3,51.9,60.1,55.1,48.3,89,78,59,30.10,30.02,12,2,12,0.00
2014-10-26,76.5,66.6,57.0,55.6,49.4,39.9,88,57,36,30.09,29.95,17,3,17,0.00
2014-10-27,76.0,64.4,52.5,53.0,45.3,39.3,78,51,31,29.99,29.90,17,4,17,0.00
2014-10-28,76.5,60.3,47.7,54.6,47.5,40.8,81,65,36,30.04,29.97,12,2,0,0.00
2014-10-29,86.8,64.1,50.3,55.6,47.4,40.6,76,58,23,30.06,29.97,13,1,13,0.00
2014-10-30,76.1,61.8,54.4,59.4,50.7,41.7,88,68,36,29.98,29.93,11,1,0,0.00
2014-10-31,70.4,61.7,54.9,57.7,54.8,52.2,92,79,60,29.97,29.76,18,2,18,0.81
2014-11-1,62.1,57.0,52.7,55.7,51.0,48.8,92,81,64,30.04,29.88,12,2,12,0.19
2014-11-2,67.5,56.8,48.2,51.2,46.7,42.9,90,71,45,30.15,30.04,15,1,15,0.00
2014-11-3,70.8,59.5,49.1,54.4,46.7,41.1,77,63,45,30.21,30.13,11,1,0,0.00
2014-11-4,75.9,58.3,44.3,55.6,46.3,38.0,85,67,28,30.25,30.14,9,1,0,0.00
2014-11-5,83.4,64.0,48.8,51.2,43.9,35.6,78,52,19,30.14,30.05,7,1,0,0.00
2014-11-6,79.9,63.2,53.2,57.5,48.3,40.9,81,60,31,30.18,30.11,9,1,0,0.00
2014-11-7,78.0,61.2,50.0,60.1,51.7,43.8,89,73,42,30.14,30.01,7,1,0,0.00
2014-11-8,69.5,57.8,47.4,58.6,51.9,44.2,93,82,59,30.08,29.99,7,0,0,0.00
2014-11-9,67.0,56.8,49.6,58.7,53.2,47.8,95,88,66,30.01,29.84,9,0,0,0.01
2014-11-10,65.0,58.4,53.5,57.0,54.4,51.2,94,87,75,29.91,29.83,6,1,0,0.00
2014-11-11,65.4,60.5,58.2,57.6,55.1,52.3,90,83,70,29.98,29.89,9,1,0,0.00
2014-11-12,65.1,59.0,51.4,54.2,51.6,48.0,88,77,63,30.06,29.97,10,1,0,0.00
2014-11-13,66.3,59.4,50.3,63.6,55.7,46.9,94,88,76,30.09,30.00,9,1,0,0.01
2014-11-14,69.4,60.4,51.7,58.8,54.7,48.3,95,82,63,30.06,29.98,18,2,18,0.01
2014-11-15,69.8,57.4,46.5,54.5,49.3,43.5,90,75,56,30.13,30.04,19,3,19,0.00
2014-11-16,72.4,62.0,53.1,51.3,48.1,43.6,80,62,37,30.21,30.10,16,3,13,0.00
2014-11-17,76.2,59.5,48.5,51.3,45.4,36.1,82,62,24,30.19,30.09,8,0,0,0.00
2014-11-18,78.8,61.1,50.7,41.4,36.9,27.4,65,44,16,30.13,30.06,12,1,0,0.00
2014-11-19,71.5,59.6,50.8,57.0,45.8,34.2,85,62,37,30.13,30.07,11,1,0,0.00
2014-11-20,62.3,57.6,50.0,55.2,52.5,45.0,91,83,70,30.14,30.01,9,1,0,0.03
2014-11-21,69.0,58.5,48.1,51.8,47.6,44.8,91,69,46,30.15,30.01,13,2,13,0.01
2014-11-22,69.0,60.0,49.7,59.9,51.3,42.2,94,74,57,30.19,30.07,16,2,16,0.00
2014-11-23,72.0,62.2,54.5,52.6,39.8,29.9,87,47,25,30.27,30.13,16,3,16,0.00
2014-11-24,77.8,64.0,51.2,40.8,35.8,29.3,58,37,18,30.34,30.22,20,3,20,0.00
2014-11-25,82.9,59.5,45.4,40.0,35.0,27.8,68,44,15,30.42,30.29,14,1,14,0.00
2014-11-26,81.5,60.4,46.4,51.2,37.7,30.9,66,47,18,30.29,30.16,7,1,0,0.00
2014-11-27,78.3,59.3,47.9,55.5,43.1,34.9,74,57,25,30.17,30.04,9,1,0,0.00
2014-11-28,51.2,49.3,47.3,40.8,38.9,37.6,69,67,66,30.04,30.03,7,1,0,0.00
2014-11-29,69.7,58.9,45.1,51.7,44.1,29.5,80,61,25,30.03,29.82,8,1,0,0.00
2014-11-30,68.0,61.1,49.6,55.2,51.2,41.6,81,70,62,30.06,29.81,17,3,17,0.00
2014-12-1,72.1,61.8,53.6,57.7,52.5,47.0,82,72,59,30.14,29.94,13,2,13,0.00
2014-12-2,66.1,60.3,56.8,58.5,54.7,49.1,91,82,66,29.94,29.77,19,4,19,0.64
2014-12-3,71.5,63.8,58.1,61.6,57.2,52.6,93,80,61,29.96,29.87,16,3,16,0.03
2014-12-4,69.7,60.3,54.2,60.1,54.4,49.9,90,81,64,30.06,29.93,10,1,0,0.00
2014-12-5,65.8,57.4,53.2,55.6,52.7,50.6,94,85,69,30.14,30.05,6,0,0,0.01
2014-12-6,74.3,60.5,51.9,57.6,53.4,47.8,89,78,55,30.24,30.13,9,1,0,0.00
2014-12-7,67.6,57.8,50.4,56.9,52.7,47.0,91,83,64,30.24,30.14,9,1,0,0.00
2014-12-8,67.9,57.3,49.5,59.9,52.5,47.6,93,84,66,30.18,30.08,11,1,0,0.00
2014-12-9,65.1,54.5,47.8,58.3,50.6,43.0,91,87,72,30.14,30.02,13,1,13,0.01
2014-12-10,64.7,55.5,47.2,55.5,50.0,43.4,91,82,61,30.06,29.92,8,1,0,0.00
2014-12-11,67.9,59.0,51.8,58.7,53.6,48.7,93,82,68,29.93,29.56,41,6,41,0.40
2014-12-12,60.7,54.4,49.2,52.5,49.8,46.7,94,85,66,30.11,29.73,9,1,0,2.06
2014-12-13,63.0,52.3,43.6,49.5,44.7,40.3,93,77,52,30.21,30.10,9,1,12,0.00
2014-12-14,65.9,51.5,42.0,50.3,43.6,37.7,88,76,50,30.16,30.04,7,1,0,0.00
2014-12-15,66.1,53.4,45.8,51.6,47.1,42.5,90,80,51,30.05,29.88,19,4,19,0.07
2014-12-16,68.0,55.7,48.8,53.9,49.6,45.6,91,81,60,30.03,29.94,10,1,0,0.00
2014-12-17,60.3,52.2,47.4,51.5,46.8,44.3,94,82,62,30.15,29.95,7,1,0,0.18
2014-12-18,66.7,54.3,48.9,54.7,49.3,44.9,91,83,64,30.25,30.12,9,1,0,0.01
2014-12-19,66.3,55.4,47.6,53.8,49.7,45.1,94,82,63,30.27,30.16,8,1,0,0.00
2014-12-20,64.7,56.9,50.6,57.3,52.5,47.3,91,85,75,30.25,30.15,10,1,0,0.00
2014-12-21,69.5,61.9,54.8,56.2,53.1,49.6,86,73,62,30.25,30.16,13,4,13,0.00
2014-12-22,70.3,66.1,62.3,55.1,52.8,49.9,71,62,56,30.18,30.05,25,6,25,0.00
2014-12-23,82.5,65.2,53.2,58.7,51.9,46.4,80,63,39,30.13,30.03,15,2,15,0.00
2014-12-24,66.1,56.3,49.7,55.4,48.8,41.3,85,76,57,30.09,29.94,15,2,15,0.01
2014-12-25,60.4,51.8,44.6,41.9,36.5,30.9,73,57,35,30.07,29.94,14,4,13,0.00
2014-12-26,64.5,49.0,38.0,40.8,34.5,30.0,75,59,33,30.24,30.05,12,1,12,0.00
2014-12-27,63.9,47.4,36.6,40.8,35.3,29.5,79,65,32,30.37,30.23,9,2,0,0.00
2014-12-28,62.7,48.0,37.8,46.3,37.5,31.7,84,68,39,30.34,30.18,10,2,0,0.00
2014-12-29,60.4,47.3,36.8,47.3,38.3,29.0,87,72,46,30.21,30.07,17,2,17,0.00
2014-12-30,54.9,47.5,40.6,39.9,36.6,33.3,88,66,51,30.10,29.99,13,3,13,0.00
2014-12-31,56.6,45.5,35.3,34.2,23.3,14.0,71,45,19,30.19,30.06,21,3,22,0.00
2015-1-1,61.4,44.7,32.8,42.1,30.7,20.8,79,60,30,30.17,30.09,9,2,0,0.00
2015-1-2,62.2,45.3,33.7,45.2,35.6,28.2,83,70,41,30.20,30.06,10,2,0,0.00